| time (UTC) | temp C | wind direction | speed KPH | gust KPH | rain 1hr cm | rain 24hr cm | rain mn cm | humidity % | barometer mb |
| 20260504182947 | 24 | 129 | 4.8 | 17.7 | 0.00 | 0.00 | 0.00 | 45 | 970.5 |
| 20260504181935 | 24 | 205 | 3.2 | 11.3 | 0.00 | 0.00 | 0.00 | 49 | 970.6 |
| 20260504181430 | 23 | 167 | 1.6 | 11.3 | 0.00 | 0.00 | 0.00 | 46 | 970.6 |
| 20260504180924 | 23 | 256 | 1.6 | 14.5 | 0.00 | 0.00 | 0.00 | 47 | 970.6 |
| 20260504180419 | 23 | 171 | 3.2 | 14.5 | 0.00 | 0.00 | 0.00 | 44 | 970.6 |
| 20260504175912 | 23 | 195 | 3.2 | 12.9 | 0.00 | 0.00 | 0.00 | 48 | 970.7 |
| 20260504175405 | 23 | 211 | 3.2 | 12.9 | 0.00 | 0.00 | 0.00 | 47 | 970.7 |
| 20260504174900 | 23 | 128 | 3.2 | 14.5 | 0.00 | 0.00 | 0.00 | 46 | 970.8 |
| 20260504174353 | 23 | 190 | 3.2 | 14.5 | 0.00 | 0.00 | 0.00 | 49 | 970.8 |
| 20260504173848 | 23 | 322 | 3.2 | 12.9 | 0.00 | 0.00 | 0.00 | 47 | 970.8 |
| 20260504171824 | 22 | 301 | 6.4 | 19.3 | 0.00 | 0.00 | 0.00 | 49 | 971.0 |
| 20260504170811 | 22 | 264 | 4.8 | 16.1 | 0.00 | 0.00 | 0.00 | 50 | 971.1 |
| 20260504160230 | 21 | 329 | 6.4 | 16.1 | 0.00 | 0.00 | 0.00 | 51 | 971.9 |
| 20260504150721 | 20 | 340 | 6.4 | 16.1 | 0.00 | 0.00 | 0.00 | 49 | 972.9 |
| 20260504150214 | 20 | 294 | 4.8 | 12.9 | 0.00 | 0.00 | 0.00 | 51 | 972.9 |
| 20260504141209 | 17 | 325 | 6.4 | 16.1 | 0.00 | 0.00 | 0.00 | 53 | 972.7 |
| 20260504140710 | 17 | 292 | 3.2 | 14.5 | 0.00 | 0.00 | 0.00 | 56 | 972.7 |
| 20260504140209 | 17 | 207 | 1.6 | 8.0 | 0.00 | 0.00 | 0.00 | 61 | 972.6 |
| 20260504130659 | 11 | 337 | 0.0 | 0.0 | 0.00 | 0.00 | 0.00 | 83 | 972.4 |
| 20260504130159 | 11 | 338 | 0.0 | 0.0 | 0.00 | 0.00 | 0.00 | 85 | 972.3 |
| 20260504120151 | 4 | 208 | 0.0 | 0.0 | 0.00 | 0.00 | 0.00 | 92 | 972.4 |
| 20260504110646 | 2 | 208 | 0.0 | 0.0 | 0.00 | 0.00 | 0.00 | 93 | 972.1 |
| 20260504110144 | 2 | 208 | 0.0 | 0.0 | 0.00 | 0.00 | 0.00 | 93 | 972.0 |
| 20260504081921 | 3 | 208 | 0.0 | 0.0 | 0.00 | 0.00 | 0.00 | 93 | 972.0 |
| 20260504081415 | 3 | 208 | 0.0 | 0.0 | 0.00 | 0.00 | 0.00 | 93 | 972.0 |
| 20260504080910 | 3 | 208 | 0.0 | 0.0 | 0.00 | 0.00 | 0.00 | 93 | 972.0 |
| 20260504070252 | 4 | 208 | 0.0 | 0.0 | 0.00 | 0.00 | 0.00 | 93 | 972.0 |
| 20260504060141 | 5 | 208 | 0.0 | 0.0 | 0.00 | 0.00 | 0.00 | 92 | 972.2 |
| 20260504050536 | 5 | 208 | 0.0 | 0.0 | 0.00 | 0.00 | 0.00 | 90 | 972.3 |
| 20260504045016 | 6 | 208 | 0.0 | 0.0 | 0.00 | 0.00 | 0.00 | 90 | 972.3 |
| 20260504044509 | 6 | 208 | 0.0 | 0.0 | 0.00 | 0.00 | 0.00 | 90 | 972.2 |
| 20260504044004 | 6 | 208 | 0.0 | 0.0 | 0.00 | 0.00 | 0.00 | 90 | 972.2 |
| 20260504043458 | 6 | 208 | 0.0 | 0.0 | 0.00 | 0.00 | 0.00 | 89 | 972.2 |
| 20260504042952 | 6 | 208 | 0.0 | 0.0 | 0.00 | 0.00 | 0.00 | 89 | 972.3 |
| 20260504042445 | 6 | 208 | 0.0 | 0.0 | 0.00 | 0.00 | 0.00 | 89 | 972.2 |
| 20260504041939 | 6 | 208 | 0.0 | 0.0 | 0.00 | 0.00 | 0.00 | 89 | 972.0 |
| 20260504041434 | 6 | 208 | 0.0 | 0.0 | 0.00 | 0.00 | 0.00 | 88 | 972.0 |
| 20260504040928 | 6 | 208 | 0.0 | 0.0 | 0.00 | 0.00 | 0.00 | 87 | 972.0 |
| 20260504040422 | 6 | 208 | 0.0 | 0.0 | 0.00 | 0.00 | 0.00 | 87 | 971.9 |
| 20260504035916 | 6 | 208 | 0.0 | 0.0 | 0.00 | 0.00 | 0.00 | 86 | 971.8 |
| 20260504035410 | 6 | 208 | 0.0 | 0.0 | 0.00 | 0.00 | 0.00 | 86 | 971.9 |
| 20260504034904 | 6 | 208 | 0.0 | 0.0 | 0.00 | 0.00 | 0.00 | 86 | 972.0 |
| 20260504034357 | 7 | 208 | 0.0 | 0.0 | 0.00 | 0.00 | 0.00 | 85 | 972.0 |
| 20260504033852 | 7 | 208 | 0.0 | 0.0 | 0.00 | 0.00 | 0.00 | 84 | 972.0 |
| 20260504033346 | 7 | 208 | 0.0 | 0.0 | 0.00 | 0.00 | 0.00 | 84 | 972.1 |
| 20260504032840 | 7 | 208 | 0.0 | 0.0 | 0.00 | 0.00 | 0.00 | 83 | 972.1 |
| 20260504032333 | 7 | 208 | 0.0 | 0.0 | 0.00 | 0.00 | 0.00 | 82 | 972.0 |
| 20260504031827 | 7 | 208 | 0.0 | 0.0 | 0.00 | 0.00 | 0.00 | 82 | 972.1 |
| 20260504030816 | 8 | 208 | 0.0 | 0.0 | 0.00 | 0.00 | 0.00 | 81 | 972.2 |
| 20260504030310 | 8 | 208 | 0.0 | 0.0 | 0.00 | 0.00 | 0.00 | 80 | 972.2 |
| 20260504025804 | 8 | 208 | 0.0 | 0.0 | 0.00 | 0.00 | 0.00 | 79 | 972.3 |
| 20260504025258 | 8 | 208 | 0.0 | 0.0 | 0.00 | 0.00 | 0.00 | 79 | 972.2 |
| 20260504024751 | 8 | 208 | 0.0 | 0.0 | 0.00 | 0.00 | 0.00 | 79 | 972.2 |
| 20260504024247 | 8 | 208 | 0.0 | 0.0 | 0.00 | 0.00 | 0.00 | 79 | 972.2 |
| 20260504023740 | 8 | 208 | 0.0 | 0.0 | 0.00 | 0.00 | 0.00 | 78 | 972.2 |
| 20260504023234 | 8 | 208 | 0.0 | 0.0 | 0.00 | 0.00 | 0.00 | 78 | 972.3 |
| 20260504022728 | 9 | 208 | 0.0 | 0.0 | 0.00 | 0.00 | 0.00 | 77 | 972.2 |
| 20260504022222 | 9 | 208 | 0.0 | 0.0 | 0.00 | 0.00 | 0.00 | 76 | 972.1 |
| 20260504021210 | 9 | 208 | 0.0 | 0.0 | 0.00 | 0.00 | 0.00 | 76 | 972.0 |
| 20260504020705 | 9 | 208 | 0.0 | 0.0 | 0.00 | 0.00 | 0.00 | 75 | 972.0 |
| 20260504015706 | 10 | 208 | 0.0 | 0.0 | 0.00 | 0.00 | 0.00 | 74 | 971.8 |
| 20260504015208 | 10 | 208 | 0.0 | 0.0 | 0.00 | 0.00 | 0.00 | 73 | 971.7 |
| 20260504014706 | 10 | 208 | 0.0 | 0.0 | 0.00 | 0.00 | 0.00 | 72 | 971.6 |
| 20260504014206 | 10 | 208 | 0.0 | 0.0 | 0.00 | 0.00 | 0.00 | 71 | 971.4 |
| 20260504013707 | 10 | 208 | 0.0 | 0.0 | 0.00 | 0.00 | 0.00 | 70 | 971.4 |
| 20260504013203 | 11 | 208 | 0.0 | 0.0 | 0.00 | 0.00 | 0.00 | 69 | 971.2 |
| 20260504012704 | 11 | 208 | 0.0 | 0.0 | 0.00 | 0.00 | 0.00 | 68 | 971.3 |
| 20260504012204 | 11 | 208 | 0.0 | 0.0 | 0.00 | 0.00 | 0.00 | 68 | 971.2 |
| 20260504011205 | 12 | 208 | 0.0 | 0.0 | 0.00 | 0.00 | 0.00 | 67 | 971.1 |
| 20260504010704 | 12 | 208 | 0.0 | 0.0 | 0.00 | 0.00 | 0.00 | 65 | 971.0 |
| 20260504010202 | 12 | 208 | 0.0 | 0.0 | 0.00 | 0.00 | 0.00 | 63 | 971.0 |
| 20260504005201 | 13 | 208 | 0.0 | 0.0 | 0.00 | 0.00 | 0.00 | 61 | 971.0 |
| 20260504004702 | 13 | 208 | 0.0 | 0.0 | 0.00 | 0.00 | 0.00 | 61 | 971.0 |
| 20260504003658 | 14 | 208 | 0.0 | 0.0 | 0.00 | 0.00 | 0.00 | 59 | 970.9 |
| 20260504003155 | 14 | 208 | 0.0 | 0.0 | 0.00 | 0.00 | 0.00 | 58 | 970.8 |
| 20260504002656 | 15 | 208 | 0.0 | 0.0 | 0.00 | 0.00 | 0.00 | 56 | 970.7 |
| 20260504002154 | 15 | 208 | 0.0 | 0.0 | 0.00 | 0.00 | 0.00 | 55 | 970.7 |
| 20260504001153 | 15 | 208 | 0.0 | 0.0 | 0.00 | 0.00 | 0.00 | 54 | 970.6 |
| 20260504000653 | 16 | 208 | 0.0 | 0.0 | 0.00 | 0.00 | 0.00 | 53 | 970.6 |
| 20260504000154 | 16 | 209 | 0.0 | 0.0 | 0.00 | 0.00 | 0.00 | 52 | 970.6 |
| 20260503235649 | 17 | 209 | 0.0 | 0.0 | 0.00 | 0.00 | 0.00 | 50 | 970.6 |
| 20260503235148 | 17 | 209 | 0.0 | 0.0 | 0.00 | 0.00 | 0.00 | 48 | 970.6 |
| 20260503234146 | 18 | 209 | 0.0 | 0.0 | 0.00 | 0.00 | 0.00 | 46 | 970.5 |
| 20260503233145 | 18 | 209 | 0.0 | 4.8 | 0.00 | 0.00 | 0.00 | 43 | 970.4 |
| 20260503232646 | 18 | 175 | 1.6 | 6.4 | 0.00 | 0.00 | 0.00 | 43 | 970.3 |
| 20260503232141 | 19 | 176 | 1.6 | 6.4 | 0.00 | 0.00 | 0.00 | 40 | 970.4 |
| 20260503231641 | 19 | 251 | 0.0 | 4.8 | 0.00 | 0.00 | 0.00 | 40 | 970.4 |
| 20260503230142 | 19 | 241 | 1.6 | 9.7 | 0.00 | 0.00 | 0.00 | 39 | 970.5 |
| 20260503225642 | 19 | 208 | 3.2 | 12.9 | 0.00 | 0.00 | 0.00 | 39 | 970.4 |
| 20260503225142 | 19 | 157 | 4.8 | 14.5 | 0.00 | 0.00 | 0.00 | 38 | 970.4 |
| 20260503224641 | 19 | 170 | 3.2 | 14.5 | 0.00 | 0.00 | 0.00 | 38 | 970.5 |
| 20260503224142 | 19 | 254 | 3.2 | 12.9 | 0.00 | 0.00 | 0.00 | 38 | 970.5 |
| 20260503223638 | 20 | 220 | 1.6 | 12.9 | 0.00 | 0.00 | 0.00 | 37 | 970.5 |
| 20260503223137 | 20 | 290 | 1.6 | 8.0 | 0.00 | 0.00 | 0.00 | 37 | 970.5 |
| 20260503222638 | 19 | 269 | 1.6 | 12.9 | 0.00 | 0.00 | 0.00 | 38 | 970.6 |
| 20260503222138 | 19 | 267 | 3.2 | 12.9 | 0.00 | 0.00 | 0.00 | 39 | 970.6 |
| 20260503221637 | 19 | 289 | 3.2 | 14.5 | 0.00 | 0.00 | 0.00 | 36 | 970.6 |
| 20260503221138 | 20 | 250 | 1.6 | 14.5 | 0.00 | 0.00 | 0.00 | 37 | 970.7 |
| 20260503220638 | 19 | 218 | 3.2 | 9.7 | 0.00 | 0.00 | 0.00 | 38 | 970.7 |
| 20260503220137 | 19 | 188 | 3.2 | 11.3 | 0.00 | 0.00 | 0.00 | 36 | 970.7 |
| 20260503215638 | 20 | 192 | 1.6 | 11.3 | 0.00 | 0.00 | 0.00 | 37 | 970.8 |
| 20260503215138 | 20 | 316 | 1.6 | 9.7 | 0.00 | 0.00 | 0.00 | 36 | 970.8 |
| 20260503214637 | 20 | 309 | 1.6 | 8.0 | 0.00 | 0.00 | 0.00 | 37 | 970.8 |
| 20260503213637 | 19 | 134 | 4.8 | 12.9 | 0.00 | 0.00 | 0.00 | 37 | 971.0 |
| 20260503213138 | 19 | 159 | 4.8 | 16.1 | 0.00 | 0.00 | 0.00 | 36 | 971.0 |
| 20260503212639 | 20 | 221 | 3.2 | 16.1 | 0.00 | 0.00 | 0.00 | 36 | 971.1 |
| 20260503212137 | 20 | 279 | 1.6 | 8.0 | 0.00 | 0.00 | 0.00 | 38 | 971.2 |
| 20260503211635 | 20 | 200 | 1.6 | 11.3 | 0.00 | 0.00 | 0.00 | 37 | 971.2 |
| 20260503210629 | 19 | 245 | 4.8 | 19.3 | 0.00 | 0.00 | 0.00 | 38 | 971.4 |
| 20260503210123 | 19 | 252 | 3.2 | 14.5 | 0.00 | 0.00 | 0.00 | 39 | 971.3 |
| 20260503205616 | 19 | 188 | 4.8 | 14.5 | 0.00 | 0.00 | 0.00 | 36 | 971.4 |
| 20260503205111 | 19 | 176 | 3.2 | 14.5 | 0.00 | 0.00 | 0.00 | 37 | 971.4 |
| 20260503204605 | 19 | 231 | 3.2 | 12.9 | 0.00 | 0.00 | 0.00 | 37 | 971.4 |
| 20260503204059 | 19 | 321 | 3.2 | 12.9 | 0.00 | 0.00 | 0.00 | 37 | 971.5 |
| 20260503203553 | 20 | 262 | 1.6 | 8.0 | 0.00 | 0.00 | 0.00 | 39 | 971.6 |
| 20260503203053 | 19 | 318 | 1.6 | 8.0 | 0.00 | 0.00 | 0.00 | 40 | 971.6 |
| 20260503202551 | 19 | 248 | 3.2 | 14.5 | 0.00 | 0.00 | 0.00 | 36 | 971.7 |
| 20260503202052 | 18 | 314 | 4.8 | 14.5 | 0.00 | 0.00 | 0.00 | 39 | 971.8 |
| 20260503201555 | 18 | 310 | 4.8 | 16.1 | 0.00 | 0.00 | 0.00 | 37 | 971.8 |
| 20260503201050 | 18 | 319 | 4.8 | 16.1 | 0.00 | 0.00 | 0.00 | 37 | 971.9 |
| 20260503200550 | 18 | 321 | 4.8 | 14.5 | 0.00 | 0.00 | 0.00 | 40 | 972.0 |
| 20260503200049 | 18 | 327 | 4.8 | 17.7 | 0.00 | 0.00 | 0.00 | 37 | 972.1 |
| 20260503195547 | 18 | 280 | 3.2 | 17.7 | 0.00 | 0.00 | 0.00 | 38 | 972.2 |
| 20260503195047 | 18 | 286 | 1.6 | 11.3 | 0.00 | 0.00 | 0.00 | 45 | 972.2 |
| 20260503194547 | 18 | 129 | 4.8 | 16.1 | 0.00 | 0.00 | 0.00 | 44 | 972.2 |
| 20260503194045 | 18 | 286 | 6.4 | 17.7 | 0.00 | 0.00 | 0.00 | 39 | 972.3 |
| 20260503193545 | 18 | 173 | 6.4 | 17.7 | 0.00 | 0.00 | 0.00 | 41 | 972.3 |
| 20260503193045 | 18 | 244 | 6.4 | 19.3 | 0.00 | 0.00 | 0.00 | 39 | 972.4 |
| 20260503192045 | 18 | 16 | 4.8 | 22.5 | 0.00 | 0.00 | 0.00 | 41 | 972.4 |
| 20260503191549 | 18 | 209 | 4.8 | 22.5 | 0.00 | 0.00 | 0.00 | 40 | 972.4 |
| 20260503191047 | 18 | 182 | 3.2 | 14.5 | 0.00 | 0.00 | 0.00 | 39 | 972.6 |
| 20260503190542 | 18 | 344 | 4.8 | 14.5 | 0.00 | 0.00 | 0.00 | 38 | 972.6 |
| 20260503190036 | 17 | 157 | 4.8 | 12.9 | 0.00 | 0.00 | 0.00 | 40 | 972.7 |
| 20260503185529 | 17 | 317 | 6.4 | 17.7 | 0.00 | 0.00 | 0.00 | 37 | 972.7 |
| 20260503185024 | 17 | 287 | 6.4 | 17.7 | 0.00 | 0.00 | 0.00 | 38 | 972.8 |
| 20260503184518 | 17 | 239 | 4.8 | 12.9 | 0.00 | 0.00 | 0.00 | 38 | 972.9 |
| 20260503184013 | 17 | 189 | 4.8 | 12.9 | 0.00 | 0.00 | 0.00 | 41 | 972.9 |
| 20260503183506 | 17 | 329 | 1.6 | 12.9 | 0.00 | 0.00 | 0.00 | 39 | 973.0 |